EN

Hourly Weather Al-Jadida

Today, 28 January, Thursday

Time Temperature Precipitation Wind Pressure Humidity
00:00 +15°C° 0 mm 6 mps 766 mmHg 95%
01:00 +15°C° 0 mm 5 mps 766 mmHg 94%
02:00 +15°C° 0 mm 5 mps 765 mmHg 94%
03:00 +15°C° 0 mm 4 mps 765 mmHg 92%
04:00 +15°C° 0 mm 4 mps 765 mmHg 91%
05:00 +16°C° 0 mm 3 mps 765 mmHg 89%
06:00 +16°C° 0 mm 3 mps 765 mmHg 86%
07:00 +17°C° 0 mm 3 mps 765 mmHg 83%
08:00 +18°C° 0 mm 3 mps 766 mmHg 80%
09:00 +20°C° 0 mm 3 mps 766 mmHg 75%
10:00 +21°C° 0 mm 3 mps 766 mmHg 70%
11:00 +24°C° 0 mm 2 mps 766 mmHg 65%
12:00 +22°C° 0 mm 3 mps 766 mmHg 68%
13:00 +22°C° 0 mm 4 mps 765 mmHg 71%
14:00 +22°C° 0 mm 4 mps 765 mmHg 75%
15:00 +20°C° 0 mm 4 mps 765 mmHg 81%
16:00 +19°C° 0 mm 4 mps 766 mmHg 87%
17:00 +18°C° 0 mm 3 mps 766 mmHg 93%
18:00 +17°C° 0 mm 3 mps 766 mmHg 93%
19:00 +17°C° 0 mm 3 mps 766 mmHg 93%
20:00 +16°C° 0 mm 2 mps 766 mmHg 92%
21:00 +16°C° 0 mm 2 mps 767 mmHg 92%
22:00 +16°C° 0 mm 2 mps 767 mmHg 92%
23:00 +15°C° 0 mm 1 mps 767 mmHg 92%

Tomorrow, 29 January, Friday

Time Temperature Precipitation Wind Pressure Humidity
00:00 +15°C° 0 mm 2 mps 767 mmHg 93%
01:00 +16°C° 0 mm 2 mps 766 mmHg 94%
02:00 +16°C° 0 mm 3 mps 766 mmHg 95%
03:00 +16°C° 0 mm 3 mps 766 mmHg 95%
04:00 +14°C° 0 mm 3 mps 766 mmHg 95%
05:00 +14°C° 0 mm 3 mps 766 mmHg 96%
06:00 +16°C° 0 mm 2 mps 766 mmHg 94%
07:00 +16°C° 0 mm 2 mps 767 mmHg 92%
08:00 +17°C° 0 mm 2 mps 767 mmHg 90%
09:00 +18°C° 0 mm 2 mps 767 mmHg 85%
10:00 +19°C° 0 mm 2 mps 767 mmHg 80%
11:00 +20°C° 0 mm 2 mps 767 mmHg 75%
12:00 +20°C° 0 mm 2 mps 767 mmHg 75%
13:00 +20°C° 0 mm 3 mps 766 mmHg 75%
14:00 +21°C° 0 mm 3 mps 766 mmHg 74%
15:00 +19°C° 0 mm 3 mps 766 mmHg 80%
16:00 +18°C° 0 mm 4 mps 766 mmHg 86%
17:00 +17°C° 0 mm 4 mps 767 mmHg 91%
18:00 +15°C° 0 mm 4 mps 767 mmHg 92%
19:00 +16°C° 0 mm 3 mps 767 mmHg 93%
20:00 +14°C° 0 mm 3 mps 768 mmHg 93%
21:00 +14°C° 0 mm 3 mps 768 mmHg 93%
22:00 +15°C° 0 mm 2 mps 767 mmHg 93%
23:00 +14°C° 0 mm 2 mps 767 mmHg 93%

Day after tomorrow, 30 January, Saturday

Time Temperature Precipitation Wind Pressure Humidity
00:00 +14°C° 0 mm 3 mps 767 mmHg 93%
01:00 +14°C° 0 mm 4 mps 767 mmHg 93%
02:00 +14°C° 0 mm 4 mps 767 mmHg 93%
03:00 +14°C° 0 mm 4 mps 767 mmHg 94%
04:00 +13°C° 0 mm 3 mps 767 mmHg 94%
05:00 +13°C° 0 mm 3 mps 766 mmHg 94%
06:00 +14°C° 0 mm 2 mps 767 mmHg 92%
07:00 +15°C° 0 mm 2 mps 767 mmHg 90%
08:00 +16°C° 0 mm 2 mps 768 mmHg 88%
09:00 +17°C° 0 mm 2 mps 768 mmHg 84%
10:00 +18°C° 0 mm 3 mps 768 mmHg 80%
11:00 +19°C° 0 mm 3 mps 768 mmHg 76%
12:00 +19°C° 0 mm 3 mps 767 mmHg 76%
13:00 +19°C° 0 mm 3 mps 767 mmHg 76%
14:00 +19°C° 0 mm 3 mps 767 mmHg 76%
15:00 +18°C° 0 mm 4 mps 767 mmHg 80%
16:00 +17°C° 0 mm 4 mps 767 mmHg 84%
17:00 +15°C° 0 mm 4 mps 767 mmHg 87%
18:00 +16°C° 0 mm 3 mps 767 mmHg 88%
19:00 +16°C° 0 mm 3 mps 768 mmHg 89%
20:00 +14°C° 0 mm 3 mps 768 mmHg 89%
21:00 +14°C° 0 mm 3 mps 768 mmHg 90%
22:00 +14°C° 0 mm 3 mps 768 mmHg 91%
23:00 +14°C° 0 mm 3 mps 768 mmHg 91%

31 January, Sunday

Time Temperature Precipitation Wind Pressure Humidity
00:00 +13°C° 0 mm 3 mps 768 mmHg 92%
01:00 +13°C° 0 mm 3 mps 767 mmHg 92%
02:00 +13°C° 0 mm 3 mps 767 mmHg 92%
03:00 +13°C° 0 mm 3 mps 767 mmHg 92%
04:00 +13°C° 0 mm 4 mps 767 mmHg 92%
05:00 +13°C° 0 mm 4 mps 767 mmHg 92%
06:00 +14°C° 0 mm 4 mps 767 mmHg 90%
07:00 +14°C° 0 mm 5 mps 767 mmHg 89%
08:00 +15°C° 0 mm 5 mps 768 mmHg 88%
09:00 +16°C° 0 mm 5 mps 767 mmHg 82%
10:00 +17°C° 0 mm 6 mps 767 mmHg 76%
11:00 +19°C° 0 mm 6 mps 767 mmHg 71%
12:00 +19°C° 0 mm 6 mps 767 mmHg 70%
13:00 +18°C° 0 mm 7 mps 766 mmHg 68%
14:00 +18°C° 0 mm 7 mps 766 mmHg 67%
15:00 +17°C° 0 mm 7 mps 766 mmHg 71%
16:00 +16°C° 0 mm 7 mps 766 mmHg 76%
17:00 +15°C° 0 mm 7 mps 766 mmHg 80%
18:00 +15°C° 0 mm 7 mps 766 mmHg 82%
19:00 +14°C° 0 mm 7 mps 767 mmHg 84%
20:00 +14°C° 0 mm 6 mps 767 mmHg 87%
21:00 +14°C° 0 mm 6 mps 767 mmHg 87%
22:00 +13°C° 0 mm 6 mps 767 mmHg 88%
23:00 +13°C° 0 mm 6 mps 767 mmHg 88%

1 February, Monday

Time Temperature Precipitation Wind Pressure Humidity
00:00 +13°C° 0 mm 6 mps 766 mmHg 89%
01:00 +13°C° 0 mm 6 mps 766 mmHg 89%
02:00 +13°C° 0 mm 6 mps 766 mmHg 89%
03:00 +13°C° 0 mm 6 mps 766 mmHg 89%
04:00 +13°C° 0 mm 6 mps 766 mmHg 89%
05:00 +13°C° 0 mm 6 mps 765 mmHg 90%
06:00 +13°C° 0 mm 6 mps 766 mmHg 87%
07:00 +14°C° 0 mm 6 mps 766 mmHg 84%
08:00 +15°C° 0 mm 7 mps 767 mmHg 81%
09:00 +16°C° 0 mm 6 mps 767 mmHg 74%
10:00 +19°C° 0 mm 6 mps 767 mmHg 68%
11:00 +20°C° 0 mm 6 mps 766 mmHg 61%
12:00 +20°C° 0 mm 7 mps 766 mmHg 62%
13:00 +20°C° 0 mm 7 mps 766 mmHg 63%
14:00 +20°C° 0 mm 7 mps 765 mmHg 63%
15:00 +18°C° 0 mm 7 mps 765 mmHg 70%
16:00 +17°C° 0 mm 6 mps 765 mmHg 77%
17:00 +15°C° 0 mm 6 mps 765 mmHg 83%
18:00 +15°C° 0 mm 6 mps 765 mmHg 86%
19:00 +15°C° 0 mm 6 mps 766 mmHg 88%
20:00 +14°C° 0 mm 6 mps 766 mmHg 90%
21:00 +14°C° 0 mm 6 mps 766 mmHg 91%
22:00 +14°C° 0 mm 6 mps 766 mmHg 91%
23:00 +14°C° 0 mm 6 mps 766 mmHg 92%

2 February, Tuesday

Time Temperature Precipitation Wind Pressure Humidity
00:00 +14°C° 0 mm 5 mps 766 mmHg 92%
01:00 +13°C° 0 mm 5 mps 765 mmHg 92%
02:00 +13°C° 0 mm 5 mps 765 mmHg 92%
03:00 +13°C° 0 mm 5 mps 765 mmHg 91%
04:00 +13°C° 0 mm 5 mps 764 mmHg 90%
05:00 +13°C° 0 mm 5 mps 764 mmHg 88%
06:00 +13°C° 0 mm 5 mps 764 mmHg 86%
07:00 +14°C° 0 mm 5 mps 765 mmHg 83%
08:00 +15°C° 0 mm 5 mps 765 mmHg 81%
09:00 +17°C° 0 mm 5 mps 765 mmHg 74%
10:00 +19°C° 0 mm 5 mps 765 mmHg 68%
11:00 +21°C° 0 mm 5 mps 765 mmHg 61%
12:00 +21°C° 0 mm 5 mps 764 mmHg 61%
13:00 +22°C° 0 mm 5 mps 763 mmHg 62%
14:00 +22°C° 0 mm 5 mps 763 mmHg 62%
15:00 +20°C° 0 mm 5 mps 763 mmHg 70%
16:00 +19°C° 0 mm 4 mps 763 mmHg 78%
17:00 +17°C° 0 mm 4 mps 763 mmHg 85%
18:00 +17°C° 0 mm 4 mps 763 mmHg 85%
19:00 +16°C° 0 mm 3 mps 763 mmHg 85%
20:00 +14°C° 0 mm 3 mps 764 mmHg 85%
21:00 +14°C° 0 mm 3 mps 763 mmHg 84%
22:00 +15°C° 0 mm 2 mps 763 mmHg 83%
23:00 +15°C° 0 mm 2 mps 763 mmHg 82%
Show more